Accueil
METAR-TAF:

METAR-TAF

Aéroports :

Aéroport de Troyes - Barberey

Troyes, France

latitude: 48-20N, longitude: 004-01E, altitude: 118 m

Observation

Le bulletin a été fait il y a 15 minutes, à 17:30 UTC
Vent 11 kt de sud/sud-ouest
Température 22°C
Humidité 53%
Pression 1014 hPa
Visibilité 10 km ou plus
pas de nuages en-dessous de 1500 mètres et pas de cumulonimbus.

METAR: LFQB 281730Z AUTO 21011KT CAVOK 22/12 Q1014

Heure: 19:45 (17:45 UTC)


TAF: absent

Observations et prévisions météorologiques de plus de 4000 aéroports (messages METAR et TAF).

Les stations disponibles sont représentées par des disques jaunes et rouges sur la carte.

Passer la souris dessus pour voir le nom de la station.

Cliquer dessus pour voir les observations et prévisions météorologiques.

Pour changer de carte: cliquez sur les boutons verts avec une croix noire pour zoomer, sur le bouton vert avec un tiret pour effectuer un zoom arrière, ou sur les flèches vertes pour les cartes adjacentes.


METAR-TAF: